IRIDIUM 107

Last updated on Fri Sep 11 2026 00:03:06 GMT+0000 (Coordinated Universal Time)

1 42960U 17061F 26253.33308637 .00000156 00000+0 48819-4 0 9992 2 42960 86.4029 349.6903 0002309 89.0518 271.0943 14.34217691467024
UTC large
Height (km)
Speed (km/s)
/
Latitude / Longitude
Inclination (degrees)
Orbital Period (minutes)
Azimuth
Elevation
Range (km)
Doppler Factor

Next 0 passes for location: London (51.5072 / 0.1276)

No passes found over London.
IRIDIUM 107